Tracking 19847 objects as of 15-Sep-2019
HD Live streaming from Space Station
objects crossing your sky now

COSMOS 1761

Track COSMOS 1761 now!
COSMOS 1761 is classified as:


NORAD ID: 16849
Int'l Code: 1986-050A
Perigee: 6,533.5 km
Apogee: 33,812.6 km
Inclination: 69.8 °
Period: 717.3 minutes
Semi major axis: 26544 km
RCS: 12.1379 m2 (large)
Launch date: July 5, 1986
Source: Commonwealth of Independent States (former USSR) (CIS)
Launch site: PLESETSK MISSILE AND SPACE COMPLEX (PKMTR)
aabbcc
Your satellite tracking list
Your tracking list is empty




NASA's NSSDC Master Catalog

Two Line Element Set (TLE):
1 16849U 86050A   19257.52697243 +.00000785 +00000-0 +00000-0 0  9999
2 16849 069.7500 169.7103 5138443 070.2817 099.0335 02.00748324243151
Source of the keplerian elements: AFSPC